[[{"header":{"parameterUnit":"m.s-1","parameterCategory":1,"la1":30.2991,"la2":30.254,"lo1":-89.0895,"lo2":-89.0444,"dy":0.0017,"dx":0.0017,"nx":28,"ny":28,"refTime":"2024-10-05T09:00:00:Z","depth":0,"parameterNumber":2,"parameterNumberName":"U-component_of_WINDS"},"data":[0,0,0,0,0,0,0,0,0,0,0,0,0,0,0,0,0,0,0,0,0,0,0,0,0,0,0,0,0,0,0,0,0,0,0,0,0,0,0,0,0,0,0,0,0,0,0,0,0,0,0,0,0,0,0,0,0,0,-2.5434,-2.5435,0,-2.5537,-2.5539,-2.554,-2.548,-2.5478,-2.5475,-2.5472,-2.5579,-2.5585,-2.559,0,0,0,0,0,0,0,0,0,0,0,0,0,-2.5188,-2.5193,-2.5434,-2.5436,-2.5437,-2.5537,-2.5539,-2.554,-2.5481,-2.5477,-2.5474,-2.5471,-2.5577,-2.5584,-2.5591,0,0,0,0,0,0,0,0,0,0,0,0,0,-2.5294,-2.5195,-2.5434,-2.5419,-2.5419,-2.5537,-2.5539,-2.554,-2.5482,-2.5477,-2.5473,-2.5469,-2.5575,-2.5583,-2.5592,-2.573,0,0,-2.5617,-2.5621,0,0,0,0,0,0,0,0,-2.5288,-2.5303,-2.542,-2.5421,-2.542,-2.5492,-2.5491,-2.5604,-2.5483,-2.5458,-2.5472,-2.5467,-2.5554,-2.5564,-2.5593,-2.5735,-2.574,-2.5618,-2.5623,-2.5627,-2.5629,0,0,0,0,0,0,0,-2.5281,-2.5298,-2.5475,-2.5422,-2.5422,-2.5408,-2.5419,-2.5512,-2.5529,-2.546,-2.5456,-2.5469,-2.5553,-2.5585,-2.5595,-2.5741,-2.5618,-2.5625,-2.563,-2.5633,-2.6005,-2.601,0,0,0,0,0,0,-2.5274,-2.5292,-2.5472,-2.5478,-2.5342,-2.5416,-2.5428,-2.5473,-2.5528,-2.5532,-2.5472,-2.5466,-2.5573,-2.5585,-2.5598,-2.5766,-2.5626,-2.5634,-2.5639,-2.6,-2.6006,-2.6011,0,0,0,0,0,0,-2.5269,-2.5291,-2.5468,-2.5384,-2.5406,-2.5425,-2.5477,-2.5478,-2.5509,-2.5537,-2.554,-2.5502,-2.557,-2.5586,-2.5698,-2.5769,-2.5638,-2.5646,-2.5994,-2.6002,-2.6009,-2.6102,0,0,0,0,0,0,-2.5262,-2.5289,-2.5342,-2.5386,-2.541,-2.5566,-2.5481,-2.5483,-2.5523,-2.5516,-2.5565,-2.557,-2.5567,-2.5686,-2.5706,-2.5778,-2.5652,-2.5988,-2.5998,-2.6006,-2.6092,-2.6111,-2.6127,0,0,0,0,0,-2.5254,-2.5364,-2.5344,-2.5366,-2.5476,-2.557,-2.5584,-2.5579,-2.5529,-2.5583,-2.5601,-2.5568,-2.5757,-2.5698,-2.572,-2.5796,-2.5984,-2.5995,-2.6006,-2.6085,-2.6108,-2.6127,0,0,0,0,0,0,-2.5328,-2.5369,-2.5348,-2.5476,-2.552,-2.556,-2.5627,-2.5603,-2.5662,-2.5653,-2.5644,-2.5656,-2.5773,-2.5795,-2.5728,-2.5933,-2.5863,-2.5879,-2.5915,-2.5937,-2.5954,-2.5948,-2.5659,0,0,0,0,0,-2.5358,-2.543,-2.5463,-2.5572,-2.5595,-2.5607,-2.5648,-2.564,-2.5685,-2.5704,-2.573,-2.5776,-2.5846,-2.5892,-2.5958,-2.6094,-2.6106,-2.6157,-2.6174,-2.6189,-2.6204,-2.628,-2.6304,-2.6047,-2.6047,-2.6047,0,0,-2.5424,-2.5455,-2.5501,-2.5588,-2.5621,-2.5697,-2.5623,-2.5706,-2.5763,-2.5717,-2.5824,-2.5845,-2.5896,-2.6021,-2.6078,-2.6043,-2.6276,-2.6203,-2.6214,-2.6221,-2.6293,-2.6318,-2.6339,-2.6055,-2.6053,-2.6052,0,0,-2.5582,-2.5612,-2.5707,-2.5742,-2.5793,-2.58,-2.5823,-2.5867,-2.5879,-2.5987,-2.5954,-2.6021,-2.6141,-2.6179,-2.6214,-2.6387,-2.636,-2.6408,-2.6501,-2.6575,-2.6595,-2.6613,-2.6678,-2.67,-2.6423,-2.6423,-2.6423,0,-2.5657,-2.5769,-2.5759,-2.5846,-2.5886,-2.5846,-2.5944,-2.5978,-2.6048,-2.6077,-2.6037,-2.6188,-2.6219,-2.6353,-2.6396,-2.6424,-2.6452,-2.6404,-2.6593,-2.6611,-2.6628,-2.6689,-2.6713,-2.6429,-2.6428,-2.6427,-2.6427,0,-2.586,-2.5938,-2.6009,-2.6078,-2.6126,-2.6217,-2.6222,-2.6272,-2.6259,-2.6271,-2.6382,-2.6418,-2.6491,-2.6522,-2.6511,-2.6656,-2.6633,-2.6593,-2.6523,-2.6658,-2.6716,-2.6739,-2.6437,-2.6435,-2.6433,-2.6432,0,0,-2.6069,-2.6131,-2.6158,-2.6189,-2.6243,-2.6304,-2.6393,-2.6464,-2.6508,-2.6557,-2.6634,-2.6736,-2.67,-2.674,-2.6733,-2.6797,-2.6935,-2.675,-2.6751,-2.6785,-2.71,-2.7132,-2.7159,-2.6916,-2.6921,-2.6924,-2.7097,0,-2.6233,-2.639,-2.6384,-2.6531,-2.6604,-2.6568,-2.6646,-2.6688,-2.6702,-2.6767,-2.6781,-2.6855,-2.68,-2.6824,-2.6886,-2.6905,-2.6999,-2.6892,-2.699,-2.6993,-2.6981,-2.7189,-2.7223,-2.7384,-2.7119,-2.7123,-2.7126,0,-2.6445,-2.6502,-2.6656,-2.67,-2.6731,-2.6801,-2.6867,-2.6929,-2.6976,-2.6981,-2.7026,-2.7008,-2.71,-2.7025,-2.7154,-2.7081,-2.712,-2.7136,-2.7142,-2.7153,-2.707,-2.7209,-2.7435,-2.7461,-2.716,-2.7158,-2.7155,0,-2.6586,-2.67,-2.6808,-2.6836,-2.6889,-2.694,-2.6964,-2.7007,-2.705,-2.7107,-2.7136,-2.7203,-2.7241,-2.7294,-2.7295,-2.724,-2.7426,-2.735,-2.7435,-2.7435,-2.7478,-2.7476,-2.7717,-2.7498,-2.7498,-2.7498,-2.7497,0,-2.6771,-2.6867,-2.6872,-2.6939,-2.7047,-2.7039,-2.7146,-2.7165,-2.7203,-2.7274,-2.7246,-2.7313,-2.7309,-2.7378,-2.7379,-2.7487,-2.7503,-2.7511,-2.7511,-2.7516,-2.7515,-2.7544,-2.7534,-2.7504,-2.7503,-2.7501,-2.75,0,-2.6947,-2.6954,-2.707,-2.711,-2.7123,-2.7201,-2.7236,-2.73,-2.731,-2.74,-2.742,-2.7437,-2.7516,-2.7522,-2.7614,-2.7615,-2.7746,-2.7732,-2.7731,-2.7729,-2.7814,-2.7808,-2.8085,-2.8122,-2.7876,-2.7879,-2.7881,0,-2.7066,-2.714,-2.7188,-2.7234,-2.7261,-2.7334,-2.7378,-2.7373,-2.7421,-2.748,-2.7538,-2.7614,-2.7675,-2.7803,-2.7824,-2.7894,-2.7884,-2.7976,-2.7894,-2.7897,-2.7889,-2.7886,-2.7894,-2.7993,-2.7996,-2.7998,-2.7999,0,-2.7278,-2.7278,-2.7343,-2.741,-2.7463,-2.7516,-2.7565,-2.7603,-2.7604,-2.7659,-2.774,-2.7787,-2.788,-2.7957,-2.8026,-2.8052,-2.8028,-2.8025,-2.8049,-2.8055,-2.8053,-2.8058,-2.7777,-2.8019,-2.8017,-2.8016,-2.8015,-2.8014,-2.7431,-2.7496,-2.754,-2.7614,-2.765,-2.7697,-2.7759,-2.7778,-2.7844,-2.792,-2.7913,-2.8003,-2.8048,-2.8138,-2.817,-2.824,-2.8209,-2.8243,-2.8252,-2.8262,-2.8272,-2.8039,-2.8253,-2.8252,-2.8251,-2.8251,-2.8251,0,-2.7644,-2.7671,-2.7738,-2.7808,-2.7866,-2.7836,-2.7889,-2.794,-2.8019,-2.8064,-2.8124,-2.8218,-2.8292,-2.8319,-2.8392,-2.8444,-2.8434,-2.8463,-2.8461,-2.8468,-2.8294,-2.8268,-2.847,-2.847,-2.847,-2.847,-2.847,-2.847,-2.7762,-2.787,-2.7875,-2.8002,-2.8028,-2.8115,-2.8148,-2.8192,-2.8227,-2.8333,-2.8395,-2.8411,-2.8449,-2.8525,-2.8592,-2.8598,-2.8628,-2.8662,-2.8664,-2.8502,-2.848,-2.8459,-2.8434,-2.8668,-2.8668,-2.8832,-2.8834,-2.8835]},{"header":{"parameterUnit":"m.s-1","parameterCategory":1,"la1":30.2991,"la2":30.254,"lo1":-89.0895,"lo2":-89.0444,"dy":0.0017,"dx":0.0017,"nx":28,"ny":28,"refTime":"2024-10-05T09:00:00:Z","depth":0,"parameterNumber":3,"parameterNumberName":"V-component_of_WINDS"},"data":[0,0,0,0,0,0,0,0,0,0,0,0,0,0,0,0,0,0,0,0,0,0,0,0,0,0,0,0,0,0,0,0,0,0,0,0,0,0,0,0,0,0,0,0,0,0,0,0,0,0,0,0,0,0,0,0,0,0,-4.0722,-4.0722,0,-4.0737,-4.0737,-4.0737,-4.0668,-4.0666,-4.0664,-4.0662,-4.0675,-4.0678,-4.068,0,0,0,0,0,0,0,0,0,0,0,0,0,-4.0632,-4.0634,-4.0722,-4.0722,-4.0722,-4.0737,-4.0737,-4.0737,-4.0668,-4.0666,-4.0663,-4.0661,-4.0675,-4.0677,-4.068,0,0,0,0,0,0,0,0,0,0,0,0,0,-4.0661,-4.0634,-4.0722,-4.069,-4.0687,-4.0737,-4.0737,-4.0737,-4.0669,-4.0666,-4.0663,-4.066,-4.0674,-4.0677,-4.068,-4.0761,0,0,-4.0691,-4.0692,0,0,0,0,0,0,0,0,-4.0659,-4.0664,-4.0694,-4.0692,-4.0689,-4.0697,-4.071,-4.0745,-4.0669,-4.0676,-4.0662,-4.0658,-4.0685,-4.0687,-4.0697,-4.0762,-4.0762,-4.0691,-4.0693,-4.0694,-4.0695,0,0,0,0,0,0,0,-4.0657,-4.0663,-4.0728,-4.0695,-4.0692,-4.0674,-4.0675,-4.0716,-4.0697,-4.0675,-4.067,-4.0673,-4.0683,-4.0694,-4.0696,-4.0763,-4.0691,-4.0694,-4.0696,-4.0697,-4.0893,-4.0897,0,0,0,0,0,0,-4.066,-4.0662,-4.0727,-4.0728,-4.0667,-4.0678,-4.0679,-4.0698,-4.0696,-4.0693,-4.0675,-4.0669,-4.0689,-4.0693,-4.0697,-4.079,-4.0694,-4.0697,-4.0699,-4.089,-4.0894,-4.0898,0,0,0,0,0,0,-4.0658,-4.0667,-4.0727,-4.0694,-4.07,-4.0683,-4.0704,-4.07,-4.071,-4.0697,-4.0693,-4.069,-4.0687,-4.0692,-4.0745,-4.079,-4.0699,-4.0702,-4.0887,-4.0891,-4.0896,-4.0979,0,0,0,0,0,0,-4.0656,-4.0666,-4.0698,-4.0695,-4.0702,-4.0776,-4.0707,-4.0702,-4.0716,-4.0709,-4.0709,-4.0706,-4.0685,-4.0741,-4.0749,-4.0793,-4.0705,-4.0882,-4.0889,-4.0894,-4.0972,-4.0986,-4.0998,0,0,0,0,0,-4.0653,-4.072,-4.07,-4.0708,-4.0741,-4.0779,-4.0783,-4.0758,-4.072,-4.0751,-4.0742,-4.0706,-4.0784,-4.0747,-4.0755,-4.0801,-4.0879,-4.0887,-4.0894,-4.0967,-4.0984,-4.0998,0,0,0,0,0,0,-4.0728,-4.072,-4.0696,-4.0765,-4.0773,-4.0767,-4.0805,-4.0777,-4.0795,-4.0788,-4.0755,-4.0755,-4.0814,-4.0813,-4.0772,-4.0878,-4.0825,-4.0834,-4.0877,-4.0893,-4.0906,-4.0905,-4.0707,0,0,0,0,0,-4.0753,-4.0785,-4.0776,-4.0837,-4.0842,-4.0823,-4.0839,-4.0819,-4.0826,-4.0829,-4.0824,-4.0832,-4.0857,-4.0875,-4.0898,-4.0972,-4.097,-4.1007,-4.102,-4.1031,-4.1039,-4.1077,-4.1093,-4.0921,-4.0921,-4.0921,0,0,-4.0804,-4.0803,-4.0826,-4.0852,-4.0856,-4.0889,-4.0827,-4.0865,-4.0889,-4.0834,-4.0885,-4.0881,-4.0888,-4.0951,-4.0979,-4.0952,-4.1086,-4.104,-4.1049,-4.1051,-4.1086,-4.1102,-4.1116,-4.0926,-4.0925,-4.0925,0,0,-4.0914,-4.0917,-4.0968,-4.0974,-4.098,-4.0967,-4.098,-4.0978,-4.0974,-4.1024,-4.0983,-4.1011,-4.1056,-4.1062,-4.1071,-4.1183,-4.115,-4.1191,-4.1258,-4.1295,-4.1309,-4.1321,-4.136,-4.1374,-4.1199,-4.12,-4.12,0,-4.0977,-4.1026,-4.0998,-4.1039,-4.1051,-4.1003,-4.1054,-4.106,-4.1075,-4.1084,-4.1053,-4.1109,-4.111,-4.1174,-4.1201,-4.121,-4.1222,-4.1191,-4.1309,-4.1321,-4.1331,-4.1368,-4.1383,-4.1205,-4.1204,-4.1203,-4.1203,0,-4.1102,-4.1137,-4.1177,-4.1192,-4.1209,-4.1254,-4.1232,-4.1253,-4.1231,-4.122,-4.1271,-4.1271,-4.1293,-4.1306,-4.1285,-4.1367,-4.135,-4.1315,-4.126,-4.1353,-4.1387,-4.1401,-4.1212,-4.121,-4.1208,-4.1207,0,0,-4.126,-4.1259,-4.1274,-4.128,-4.1283,-4.1309,-4.1352,-4.1374,-4.1391,-4.1403,-4.1437,-4.1476,-4.1444,-4.1454,-4.1433,-4.1466,-4.1553,-4.1427,-4.1426,-4.145,-4.1642,-4.1668,-4.1685,-4.1532,-4.1534,-4.1536,-4.1641,0,-4.1368,-4.1441,-4.1417,-4.1491,-4.1522,-4.1477,-4.1514,-4.152,-4.1512,-4.1536,-4.1526,-4.1554,-4.151,-4.1515,-4.1546,-4.1536,-4.1591,-4.1528,-4.1563,-4.1564,-4.1562,-4.1703,-4.1731,-4.183,-4.1655,-4.1657,-4.1658,0,-4.1503,-4.1519,-4.1597,-4.1595,-4.1607,-4.1641,-4.1658,-4.1682,-4.1687,-4.1679,-4.169,-4.1662,-4.1703,-4.1649,-4.1704,-4.1662,-4.1674,-4.1672,-4.1675,-4.1677,-4.1617,-4.1708,-4.1861,-4.1876,-4.1679,-4.1678,-4.1676,0,-4.161,-4.1651,-4.1703,-4.1709,-4.1708,-4.1733,-4.1733,-4.1735,-4.175,-4.1765,-4.1773,-4.1793,-4.1803,-4.1819,-4.1796,-4.1759,-4.1855,-4.1799,-4.1848,-4.1849,-4.187,-4.1869,-4.2027,-4.1879,-4.1879,-4.1879,-4.1878,0,-4.1732,-4.1781,-4.1751,-4.1783,-4.1836,-4.1807,-4.186,-4.1855,-4.1858,-4.1887,-4.1849,-4.1877,-4.1846,-4.1871,-4.1854,-4.1902,-4.1907,-4.1901,-4.1895,-4.1904,-4.1905,-4.1911,-4.1904,-4.1883,-4.1882,-4.1881,-4.188,0,-4.186,-4.1842,-4.1895,-4.1889,-4.1889,-4.1928,-4.1923,-4.1951,-4.194,-4.1977,-4.1985,-4.1966,-4.1994,-4.1973,-4.2,-4.1988,-4.2052,-4.2037,-4.205,-4.2046,-4.2096,-4.2091,-4.2263,-4.2284,-4.2124,-4.2125,-4.2127,0,-4.1939,-4.1976,-4.1974,-4.1991,-4.1994,-4.2022,-4.2036,-4.2008,-4.2025,-4.2033,-4.206,-4.2085,-4.2103,-4.2149,-4.2137,-4.2158,-4.2143,-4.2201,-4.2145,-4.2153,-4.2143,-4.2141,-4.2144,-4.2213,-4.2215,-4.2216,-4.2217,0,-4.2081,-4.207,-4.2092,-4.2111,-4.2129,-4.2143,-4.2153,-4.2169,-4.2141,-4.2161,-4.2189,-4.2203,-4.223,-4.2254,-4.2271,-4.227,-4.2239,-4.2235,-4.2247,-4.2256,-4.2262,-4.2259,-4.208,-4.2231,-4.223,-4.2229,-4.2228,-4.2228,-4.2187,-4.2217,-4.222,-4.2245,-4.225,-4.2261,-4.2287,-4.2279,-4.2301,-4.2322,-4.2304,-4.2337,-4.234,-4.2359,-4.2362,-4.2387,-4.2363,-4.2381,-4.2385,-4.239,-4.2397,-4.2259,-4.239,-4.239,-4.2389,-4.2389,-4.2389,0,-4.2326,-4.2325,-4.2349,-4.2365,-4.2385,-4.2354,-4.2364,-4.2382,-4.2412,-4.2418,-4.2436,-4.2467,-4.2491,-4.2481,-4.2501,-4.2523,-4.2509,-4.2529,-4.2527,-4.2527,-4.2418,-4.2405,-4.254,-4.254,-4.254,-4.254,-4.254,-4.254,-4.2401,-4.245,-4.2439,-4.249,-4.2488,-4.2521,-4.2529,-4.2538,-4.2542,-4.2579,-4.2598,-4.2592,-4.2591,-4.2611,-4.263,-4.2627,-4.2636,-4.2661,-4.2653,-4.255,-4.2535,-4.2521,-4.2509,-4.2663,-4.2664,-4.276,-4.2761,-4.2761]}]]